Latest Coastal Weather Observations for Coconut Island

IDQ60701

Issued at 3:52 am EST Tuesday 30 August 2016 (issued every 10 minutes, with the page automatically refreshed every 10 minutes)

About coastal observations | Map of coastal stations | Coastal observations for QLD | Marine services | Other Formats
Station Details ID: 027054 Name: COCONUT ISLAND Lat: -10.05 Lon: 143.07 Height: 3.5 m
Data from the previous 72 hours. | See also: Recent months at Coconut Island
Date/Time
EST
Temp
°C
Wind Pressure Rain since
9am
mm
Weather Cloud Vis
km
Sea
Height
m
Swell
Dir  Spd
kts
Gust
kts
hPa Trend Height
m
Period
s
Dir
30/03:30am 25.4 SSE 4 9 1012.6 - 0.0 - - - - - - -
30/03:00am 25.6 SSE 6 9 1012.6 - 0.0 - - - - - - -
30/02:30am 25.7 SSE 5 9 1012.7 - 0.0 - - - - - - -
30/02:00am 25.6 SSE 4 9 1013.0 - 0.0 - - - - - - -
30/01:30am 26.1 SSE 5 7 1013.2 - 0.0 - - - - - - -
30/01:00am 26.1 SSE 6 8 1013.1 - 0.0 - - - - - - -
30/12:30am 26.0 SSE 5 9 1013.4 - 0.0 - - - - - - -
30/12:00am 26.1 SSE 5 12 1013.7 - 0.0 - - - - - - -
 
Date/Time
EST
Temp
°C
Wind Pressure Rain since
9am
mm
Weather Cloud Vis
km
Sea
Height
m
Swell
Dir  Spd
kts
Gust
kts
hPa Trend Height
m
Period
s
Dir
29/11:30pm 26.2 SSE 5 9 1013.9 - 0.0 - - - - - - -
29/11:00pm 26.1 SSE 5 13 1014.0 - 0.0 - - - - - - -
29/10:30pm 26.1 SSE 6 9 1013.9 - 0.0 - - - - - - -
29/10:00pm 26.3 SSE 5 10 1013.9 - 0.0 - - - - - - -
29/09:30pm 26.1 SSE 5 8 1013.9 - 0.0 - - - - - - -
29/09:00pm 25.9 SSE 5 8 1013.8 - 0.0 - - - - - - -
29/08:30pm 26.1 SSE 5 9 1013.6 - 0.0 - - - - - - -
29/08:00pm 26.2 SSE 6 10 1013.1 - 0.0 - - - - - - -
29/07:30pm 26.3 SSE 6 9 1012.8 - 0.0 - - - - - - -
29/07:00pm 26.2 SSE 6 9 1012.5 - 0.0 - - - - - - -
29/06:30pm 26.1 SSE 6 9 1012.5 - 0.0 - - - - - - -
29/06:00pm 26.4 SSE 6 9 1012.3 - 0.0 - - - - - - -
29/05:30pm 26.7 SSE 6 10 1012.1 - 0.0 - - - - - - -
29/05:00pm 27.1 SSE 5 8 1011.9 - 0.0 - - - - - - -
29/04:30pm 27.4 SSE 5 8 1011.7 - 0.0 - - - - - - -
29/04:00pm 27.8 SSE 6 10 1011.5 - 0.0 - - - - - - -
29/03:30pm 28.3 SSE 6 10 1011.4 - 0.0 - - - - - - -
29/03:00pm 28.2 SSE 5 8 1011.6 - 0.0 - - - - - - -
29/02:30pm 28.9 SSE 5 8 1012.0 - 0.0 - - - - - - -
29/02:00pm 29.0 SSE 4 8 1012.4 - 0.0 - - - - - - -
29/01:30pm 28.4 SSE 4 7 1012.8 - 0.0 - - - - - - -
29/01:00pm 28.2 SSE 4 7 1013.3 - 0.0 - - - - - - -
29/12:30pm 28.1 SSE 4 7 1013.7 - 0.0 - - - - - - -
29/12:00pm 30.3 SSE 5 8 1013.9 - 0.0 - - - - - - -
29/11:30am 29.8 SSE 5 8 1014.1 - 0.0 - - - - - - -
29/11:00am 28.3 SSE 5 10 1014.7 - 0.0 - - - - - - -
29/10:30am 28.3 SSE 5 9 1014.9 - 0.0 - - - - - - -
29/10:00am 27.9 SSE 5 9 1015.0 - 0.0 - - - - - - -
29/09:30am 27.7 SSE 5 10 1015.0 - 0.0 - - - - - - -
29/09:00am 26.6 SSE 6 10 1014.9 - 0.0 - - - - - - -
29/08:30am 26.3 SSE 6 9 1014.6 - 0.0 - - - - - - -
29/08:00am 26.0 SSE 6 10 1014.1 - 0.0 - - - - - - -
29/07:30am 25.7 SSE 6 12 1013.8 - 0.0 - - - - - - -
29/07:00am 25.5 SSE 6 10 1013.4 - 0.0 - - - - - - -
29/06:30am 25.3 SSE 6 11 1012.9 - 0.0 - - - - - - -
29/06:00am 25.1 SSE 7 11 1012.5 - 0.0 - - - - - - -
29/05:30am 25.1 SSE 7 11 1012.0 - 0.0 - - - - - - -
29/05:00am 25.2 SSE 7 12 1012.0 - 0.0 - - - - - - -
29/04:30am 25.3 SSE 7 10 1011.8 - 0.0 - - - - - - -
29/04:00am 25.3 SSE 6 11 1012.0 - 0.0 - - - - - - -
29/03:30am 25.4 SSE 7 11 1012.0 - 0.0 - - - - - - -
29/03:00am 25.5 SSE 6 9 1012.1 - 0.0 - - - - - - -
29/02:30am 25.6 SSE 7 10 1012.0 - 0.0 - - - - - - -
29/02:00am 25.7 SSE 6 9 1012.2 - 0.0 - - - - - - -
29/01:30am 25.8 SSE 7 11 1012.5 - 0.0 - - - - - - -
29/01:00am 25.9 SSE 6 10 1013.1 - 0.0 - - - - - - -
29/12:30am 25.9 SSE 6 11 1013.4 - 0.0 - - - - - - -
29/12:00am 26.0 SSE 6 10 1013.5 - 0.0 - - - - - - -
 
Date/Time
EST
Temp
°C
Wind Pressure Rain since
9am
mm
Weather Cloud Vis
km
Sea
Height
m
Swell
Dir  Spd
kts
Gust
kts
hPa Trend Height
m
Period
s
Dir
28/11:30pm 26.0 SSE 6 14 1013.7 - 0.0 - - - - - - -
28/11:00pm 26.1 SSE 6 10 1013.7 - 0.0 - - - - - - -
28/10:30pm 26.2 SSE 5 8 1013.5 - 0.0 - - - - - - -
28/10:00pm 26.1 SSE 7 12 1013.6 - 0.0 - - - - - - -
28/09:30pm 26.2 SSE 6 12 1013.7 - 0.0 - - - - - - -
28/09:00pm 26.2 SSE 6 10 1013.7 - 0.0 - - - - - - -
28/08:30pm 26.3 SSE 6 11 1013.7 - 0.0 - - - - - - -
28/08:00pm 26.2 SSE 6 10 1013.4 - 0.0 - - - - - - -
28/07:30pm 26.3 SSE 7 11 1013.2 - 0.0 - - - - - - -
28/07:00pm 26.3 SSE 6 10 1013.0 - 0.0 - - - - - - -
28/06:30pm 26.3 SSE 6 11 1012.6 - 0.0 - - - - - - -
28/06:00pm 26.5 SSE 6 10 1012.4 - 0.0 - - - - - - -
28/05:30pm 26.1 SSE 5 8 1012.3 - 0.0 - - - - - - -
28/05:00pm 27.5 SSE 5 8 1012.3 - 0.0 - - - - - - -
28/04:30pm 27.1 SSE 5 9 1012.2 - 0.0 - - - - - - -
28/04:00pm 28.4 SSE 4 6 1012.1 - 0.0 - - - - - - -
28/03:30pm 29.0 SSE 5 9 1012.0 - 0.0 - - - - - - -
28/03:00pm 29.2 SSE 4 10 1012.2 - 0.0 - - - - - - -
28/02:30pm 29.5 SSE 4 10 1012.4 - 0.0 - - - - - - -
28/02:00pm 32.0 SE 4 10 1012.8 - 0.0 - - - - - - -
28/01:30pm 31.4 SSE 4 8 1013.2 - 0.0 - - - - - - -
28/01:00pm 32.2 SSE 3 5 1013.7 - 0.0 - - - - - - -
28/12:30pm 31.9 SE 3 8 1014.1 - 0.0 - - - - - - -
28/12:00pm 32.2 SE 3 7 1014.6 - 0.0 - - - - - - -
28/11:30am 32.3 SE 4 9 1015.0 - 0.0 - - - - - - -
28/11:00am 32.1 SE 4 11 1015.4 - 0.0 - - - - - - -
28/10:30am 31.3 SE 4 11 1015.8 - 0.0 - - - - - - -
28/10:00am 30.7 SE 4 10 1015.9 - 0.0 - - - - - - -
28/09:30am 29.9 ESE 6 11 1016.0 - 0.0 - - - - - - -
28/09:00am 29.5 ESE 5 9 1015.8 - 0.0 - - - - - - -
28/08:30am 28.0 SE 3 9 1015.7 - 0.0 - - - - - - -
28/08:00am 27.4 SE 5 10 1015.4 - 0.0 - - - - - - -
28/07:30am 26.1 SE 4 10 1015.0 - 0.0 - - - - - - -
28/07:00am 25.5 SE 3 8 1014.6 - 0.0 - - - - - - -
28/06:30am 25.4 SE 6 12 1014.2 - 0.0 - - - - - - -
28/06:00am 25.3 SE 4 9 1013.8 - 0.0 - - - - - - -
28/05:30am 25.3 ESE 7 11 1013.5 - 0.0 - - - - - - -
28/05:00am 25.7 ESE 6 10 1013.3 - 0.0 - - - - - - -
28/04:30am 25.8 SE 5 8 1013.2 - 0.0 - - - - - - -
28/04:00am 25.6 ESE 5 9 1013.1 - 0.0 - - - - - - -
28/03:30am 25.5 SE 4 10 1013.1 - 0.0 - - - - - - -
28/03:00am 25.6 SE 4 9 1013.1 - 0.0 - - - - - - -
28/02:30am 25.6 SE 5 11 1013.3 - 0.0 - - - - - - -
28/02:00am 25.8 SE 4 10 1013.3 - 0.0 - - - - - - -
28/01:30am 25.9 SE 3 9 1013.5 - 0.0 - - - - - - -
28/01:00am 26.1 SE 6 11 1013.8 - 0.0 - - - - - - -
28/12:30am 26.3 ESE 5 11 1014.1 - 0.0 - - - - - - -
28/12:00am 26.3 SE 5 12 1014.4 - 0.0 - - - - - - -
 
Date/Time
EST
Temp
°C
Wind Pressure Rain since
9am
mm
Weather Cloud Vis
km
Sea
Height
m
Swell
Dir  Spd
kts
Gust
kts
hPa Trend Height
m
Period
s
Dir
27/11:30pm 26.4 SE 4 9 1014.5 - 0.0 - - - - - - -
27/11:00pm 26.4 SE 3 8 1014.5 - 0.0 - - - - - - -
27/10:30pm 26.4 SE 4 7 1014.5 - 0.0 - - - - - - -
27/10:00pm 26.4 SSE 3 9 1014.4 - 0.0 - - - - - - -
27/09:30pm 26.5 SE 4 9 1014.3 - 0.0 - - - - - - -
27/09:00pm 26.5 SSE 3 8 1014.2 - 0.0 - - - - - - -
27/08:30pm 26.6 SSE 4 7 1014.3 - 0.0 - - - - - - -
27/08:00pm 26.6 SSE 3 5 1013.9 - 0.0 - - - - - - -
27/07:30pm 26.9 SSE 3 5 1013.7 - 0.0 - - - - - - -
27/07:00pm 26.9 SSE 2 4 1013.4 - 0.0 - - - - - - -
27/06:30pm 27.3 SSE 2 4 1013.2 - 0.0 - - - - - - -
27/06:00pm 27.5 SSE 2 4 1013.0 - 0.0 - - - - - - -
27/05:30pm 28.1 SSE 2 4 1013.0 - 0.0 - - - - - - -
27/05:00pm 28.4 SE 2 5 1012.8 - 0.0 - - - - - - -
27/04:30pm 29.0 SE 1 4 1012.6 - 0.0 - - - - - - -
27/04:00pm 29.9 SE 2 5 1012.5 - 0.0 - - - - - - -
27/03:30pm 30.0 SE 1 3 1012.4 - 0.0 - - - - - - -
27/03:00pm 30.9 SE 2 5 1012.6 - 0.0 - - - - - - -
27/02:30pm 31.7 SE 2 5 1013.0 - 0.0 - - - - - - -
27/02:00pm 31.4 SE 2 5 1013.3 - 0.0 - - - - - - -
27/01:30pm 31.6 ESE 3 8 1013.7 - 0.0 - - - - - - -
27/01:00pm 33.0 SE 2 6 1014.0 - 0.0 - - - - - - -
27/12:30pm 33.1 SE 2 7 1014.4 - 0.0 - - - - - - -
27/12:00pm 32.6 SE 3 7 1014.8 - 0.0 - - - - - - -
27/11:30am 32.5 SE 1 4 1015.1 - 0.0 - - - - - - -
27/11:00am 31.8 SE 1 4 1015.4 - 0.0 - - - - - - -
27/10:30am 32.1 SE 1 4 1015.5 - 0.0 - - - - - - -
27/10:00am 29.1 SSE 2 4 1015.4 - 0.0 - - - - - - -
27/09:30am 29.3 SE 1 3 1015.4 - 0.0 - - - - - - -
27/09:00am 28.5 SE 1 3 1015.1 - 0.0 - - - - - - -
27/08:30am 28.7 SE 2 6 1014.8 - 0.0 - - - - - - -
27/08:00am 27.7 SSE 2 5 1014.7 - 0.0 - - - - - - -
27/07:30am 26.3 SSE 2 4 1014.5 - 0.0 - - - - - - -
27/07:00am 26.2 SE 1 3 1014.2 - 0.0 - - - - - - -
27/06:30am 25.8 SSE 1 4 1013.8 - 0.0 - - - - - - -
27/06:00am 25.9 SSE 1 3 1013.3 - 0.0 - - - - - - -
27/05:30am 25.6 CALM 0 2 1012.9 - 0.0 - - - - - - -
27/05:00am 25.5 CALM 0 1 1012.6 - 0.0 - - - - - - -
27/04:30am 25.9 CALM 0 1 1012.8 - 0.0 - - - - - - -
27/04:00am 26.0 CALM 0 1 1012.7 - 0.0 - - - - - - -

Other Formats:

Comma delimited format used in spreadsheet applications
http://www.bom.gov.au/fwo/IDQ60701/IDQ60701.94182.axf

JavaScript Object Notation format (JSON) in row-major order
http://www.bom.gov.au/fwo/IDQ60701/IDQ60701.94182.json